Regional Weather Roundup
Issued by NWS Upton, NY

Current Version | Previous Version | Text Only | Print | Product List | Glossary On
Versions: 1 2 3 4 5 6 7 8 9 10 11 12 13 14 15 16 17 18 19 20 21 22 23 24 25 26 27 28 29 30 31 32 33 34 35 36 37 38 39 40 41 42 43 44 45 46 47 48 49 50
000 ASUS41 KOKX 220005 RWROKX Regional Weather Roundup National Weather Service New York NY 800 PM EDT MON MAY 21 2018 Note: "FAIR" indicates few or no clouds below 12,000 feet with no significant weather and/or obstructions to visibility. NYZ071-072-176-178-NJZ106-104-220100- New York City Metro Area CITY SKY/WX TMP DP RH WIND PRES REMARKS Central Park FAIR 68 47 46 VRB5 30.18R Bronx Bot Gard N/A 64 48 55 E5 30.15S Bronx Lehman C N/A 68 48 49 S7 N/A LaGuardia Arpt MOCLDY 67 49 52 S10 30.15R Queens College N/A 64 50 59 S10 N/A Kennedy Intl FAIR 61 50 67 S13 30.17R Breezy Point N/A 61 N/A N/A S14 N/A Brooklyn Coll N/A 64 50 59 SE7 N/A Staten Island N/A 68 52 56 S7 N/A Newark/Liberty MOCLDY 71 52 50 S8 30.14R Teterboro FAIR 70 47 43 S7 30.14R $$ NYZ177-179-078>081-220100- Long Island New York CITY SKY/WX TMP DP RH WIND PRES REMARKS Jones Beach N/A 59 N/A N/A S6G12 N/A Wantagh N/A 61 50 67 SW7 N/A Hempstead N/A 63 50 63 S5 30.19R Matinecock Pt N/A 66 N/A N/A SW7 N/A Farmingdale FAIR 62 49 62 SW10 30.16S MacArthur/ISP MOCLDY 63 48 58 S6 30.16R Stony Brook N/A 63 50 63 S3 N/A Shirley FAIR 62 51 67 S7 30.16S Mt Sinai Harb N/A N/A N/A N/A S7 N/A Westhampton FAIR 59 46 62 SW7 30.17S East Hampton FAIR 59 47 66 SW8 30.15R Southold N/A 61 50 67 SW7 N/A Montauk N/A 60 51 72 S6 30.16S $$ NYZ052-065-067-220100- Hudson Valley CITY SKY/WX TMP DP RH WIND PRES REMARKS White Plains FAIR 66 48 52 S8 30.15R Larchmont Harb N/A 63 N/A N/A S16 N/A Croton On Huds N/A 72 N/A N/A S6 N/A Somers N/A 70 48 46 SW5 N/A Brewster N/A 66 46 48 NW1 N/A Newburgh CLEAR 75 45 33 VRB5 30.14R Montgomery FAIR 69 56 62 CALM 30.11R Otisville N/A 68 48 49 W1 N/A Warwick N/A 70 48 46 SW2 N/A Suffern N/A 70 48 46 S2 N/A Poughkeepsie FAIR 69 54 58 CALM 30.11R Albany MOCLDY 72 42 34 W7 30.12R $$ NJZ001-105-106-008-010-013-015-019>022-104-220100- New Jersey CITY SKY/WX TMP DP RH WIND PRES REMARKS Newark/Liberty MOCLDY 71 52 50 S8 30.14R Teterboro FAIR 70 47 43 S7 30.14R Caldwell FAIR 73 51 46 S6 30.14R Somerville FAIR 70 51 51 S3 30.12R Linden FAIR 71 49 46 S7 30.15R Perth Amboy N/A 70 N/A N/A S9 N/A Sussex FAIR 68 53 58 CALM 30.13R Andover N/A 67 53 61 CALM 30.14R Trenton FAIR 70 53 54 S10 30.15R Millville FAIR 66 50 56 SE5 30.17R Atlantic City FAIR 64 52 64 SE6 30.18R Wrightstown FAIR 65 47 52 S5 30.14R Toms River FAIR 63 51 65 S5 30.18R Belmar FAIR 63 48 58 S6 30.18R $$ PAZ047>061-062-071-220100- Eastern Pennsylvania CITY SKY/WX TMP DP RH WIND PRES REMARKS Philadelphia MOCLDY 72 57 59 S7 30.15R Allentown FAIR 75 47 36 S6 30.13R Scranton FAIR 68 50 52 E3 30.14S $$ CTZ002-004>006-009-010-012-RIZ004-006-007-MAZ004-011-015-220100- Southern New England In CT CITY SKY/WX TMP DP RH WIND PRES REMARKS Bradley Intl FAIR 72 41 32 W6 30.11R Hartford FAIR 71 48 43 S6 30.11R Danbury FAIR 66 53 63 CALM 30.14R Wtrbury/Oxford FAIR 69 49 48 S3 30.15R Norwalk Harbor N/A 63 N/A N/A S8 N/A Bridgeport FAIR 66 52 60 S14 30.14R Meriden FAIR 68 45 43 SE5 30.13R New Haven FAIR 62 54 74 S6 30.14R Chester FAIR 64 52 63 VRB6G12 30.15R Groton FAIR 58 52 80 SW6 30.14R Willimantic FAIR 71 49 45 S7 30.12R In RI CITY SKY/WX TMP DP RH WIND PRES REMARKS Providence MOCLDY 65 47 52 SW8 30.13R Block Island N/A N/A N/A N/A MISG N/A Westerly FAIR 61 49 64 SW7 30.15S In MA CITY SKY/WX TMP DP RH WIND PRES REMARKS Boston MOCLDY 70 48 45 SW14 30.08R Worcester FAIR 67 45 45 SW7 30.13R Westfield FAIR 72 42 34 SW6 30.11R Provincetown FAIR 59 46 62 S15 30.12R Nantucket FAIR 52 50 93 S5 30.15R $$ ANZ330-335-338-340-345-350-353-355-220100- Coastal Marine Observations STATION/POSITION TIME SKY/WX TEMP WIND PRES VSBY WAVE AIR SEA DIR/SP/G HT/PER (UTC) (F) (DEG/KT/KT) (MB) (MI) (FT/S) NY Harb Entrance 2350 58 56 190/ 10/ 12 1021.4 3/ 8 20 S Fire Island 2350 57 54 190/ 8/ 10 1021.5 3/ 8 23 SSW Montauk P 2350 56 53 220/ 8/ 10 1021.5 3/ 7 15 E Barnegat Li 2330 57 N/A 3/ 9 Hudson Canyon 2350 56 54 CALM 1021.3 3/ 9 Kings Point 2330 63 58 210/ 13/ 14 1021.7 Execution Rocks NOT AVBL Western LI Sound NOT AVBL Central LI Sound 2330 60 200/ 10/ 12 N/A 0 Robbins Reef 2342 64 150/ 13/ 14 1021.2 $$ >>>>>>>>>>>>>>>>>>>>>>>>>>>> KEY <<<<<<<<<<<<<<<<<<<<<<<<<<< > < > SKY/WX - Sky Condition/Present Weather < > TMP - Temperature in Fahrenheit < > DP - Dew Point in Fahrenheit < > RH - Relative Humidity in Percent < > WIND - Direction (from) and Speed in MPH < > PRES - Mean Sea Level Pressure (inches of Hg) < > WCI - Wind Chill Index < > VSB - Visibility in Miles < > HX - Heat Index < > TC - Temperature in Celsius < > VRB - Varibale Wind Direction < > < >>>>>>>>>>>>>>>>>>>>>>>>>>>> KEY <<<<<<<<<<<<<<<<<<<<<<<<<<<

USA.gov is the U.S. government's official web portal to all federal, state and local government web resources and services.